Regional Weather Roundup
Issued by NWS Newport/Morehead, NC

Current Version | Previous Version | Text Only | Print | Product List | Glossary On
Versions: 1 2 3 4 5 6 7 8 9 10 11 12 13 14 15 16 17 18 19 20 21 22 23 24 25 26 27 28 29 30 31 32 33 34 35 36 37 38 39 40 41 42 43 44 45 46 47 48 49 50
000 ASUS42 KMHX 102025 RWRMHX WEATHER ROUNDUP FOR EASTERN NORTH CAROLINA NATIONAL WEATHER SERVICE NEWPORT/MOREHEAD CITY NC 300 PM EST WED FEB 10 2016 NOTE: "FAIR" INDICATES FEW OR NO CLOUDS BELOW 12,000 FEET WITH NO SIGNIFICANT WEATHER AND/OR OBSTRUCTIONS TO VISIBILITY NCZ015>017-031-032-045>047-102-103-102100- NORTH COAST CITY SKY/WX TMP DP RH WIND PRES REMARKS EDENTON SUNNY 43 19 38 W13G18 29.84S ELIZABETH CITY MOSUNNY 41 20 43 SW16 29.82F KITTY HAWK CLEAR 42 20 42 W12 29.81F MANTEO SUNNY 40 21 45 W9 29.83S $$ NCZ045>047-081-094-103-104-102100- CENTRAL COAST CITY SKY/WX TMP DP RH WIND PRES REMARKS FRISCO SUNNY 41 21 44 W9G18 29.85F SWANQUARTER N/A 41 N/A N/A W15 29.82S $$ NCZ095-097-098-100-101-102100- SOUTHERN COAST CITY SKY/WX TMP DP RH WIND PRES REMARKS BEAUFORT SUNNY 41 22 46 SW15G22 29.86F CEDAR ISLAND N/A 41 N/A N/A SW14G20 29.88S JACKSONVILLE MOSUNNY 41 16 36 W13G23 29.87S PINEY ISLAND CLEAR N/A N/A N/A W14 29.85F WILMINGTON PTSUNNY 43 20 39 W21 29.89S $$ NCZ011>013-027>030-043-044-078>080-089-090>093-098-102100- COASTAL PLAIN CITY SKY/WX TMP DP RH WIND PRES REMARKS AHOSKIE MOSUNNY 38 16 39 NW5 29.84S CLINTON MOSUNNY 40 21 46 W10G17 29.90S ELIZABETHTOWN CLOUDY 39 18 42 W13G18 29.91S GOLDSBORO PTSUNNY 41 16 36 W17 29.85S GREENVILLE CLOUDY 41 18 38 W8 29.89R HAVELOCK MOSUNNY 44 19 36 W14 29.87S KENANSVILLE CLOUDY 40 15 36 W10G17 29.89R KINSTON PTSUNNY 39 16 38 W9 29.88S NEW BERN MOSUNNY 42 18 37 W9 29.87F RICHLANDS CLOUDY 41 16 36 W10 29.88S ROCKY MOUNT PTSUNNY 38 17 42 W12G22 29.86S WASHINGTON MOSUNNY 40 18 40 W10 29.86R WHITEVILLE PTSUNNY 38 17 41 W10G18 29.92R $$ AMZ130-135-150-152-154-156-158-170-250-252-270-ANZ085-086-088-633-658-670-102100- MARINE OBSERVATIONS STATION/POSITION TIME TEMP WIND PRES WAVE SWELL AIR SEA DIR/SP/G HT/PER HT/PER (UTC) (F) (DEG/KT/KT) (MB) (FT/S) (FT/S) CHESAPEAKE LIGHT 2000 40 300/ 9/ 10 1009.9 64 E VA BEACH 1950 38 50 270/ 14/ 17 1009.4 7/ 5 5/13 DUCK 2000 38 240/ 16/ 18 1009.2 2 E DUCK 1911 45 N/A 3/12 3/12 OREGON INLET 2000 40 43 270/ 7/ 10 1010.0 13E OREGON INLT 2000 47 N/A 5/13 3/13 HATTERAS CG 2000 39 49 250/ 13/ 16 1010.5 DIAMOND BUOY 1950 42 72 280/ 16/ 21 1010.9 6/14 3/14 CAPE LOOKOUT NOT AVBL BEAUFORT LAB 2000 41 46 230/ 7/ 14 1010.1 30 SE NEW RVR IN 2008 42 60 1011.5 30 SE NEW RVR IN 1955 60 N/A 7/ 9 2/11 27 SE WRIGHTSVLE 2008 42 60 280/ 16/ 23 1010.6 5 SE WRIGHTSVLE 1908 41 51 290/ 14/ 21 1012.4 225 S CAPE HAT 1950 56 68 270/ 29/ 35 N/A 14/10 11/10 41 SE CHARLESTON 1950 41 63 270/ 25/ 29 1014.8 7/ 7 2/12 $$

USA.gov is the U.S. government's official web portal to all federal, state and local government web resources and services.